#timestamp,LO_Frequency,Hit 
1500444015.0,286047066.3,N
1500444015.9,286047066.3,N
1500444035.7,286047065.3,N
1500444055.6,286047065.6,N
1500444075.4,286047065.5,N
1500444095.2,286047066.3,N
1500444115.1,286047066.5,N
1500444116.0,286047066.5,N
1500444135.8,286047065.3,N
1500444155.6,286047065.4,N
1500444175.5,286047066.0,N
1500444195.3,286047064.9,N
1500444215.1,286047062.2,N
1500444235.9,286047065.0,N
1500444255.7,286047064.9,N
1500444275.5,286047063.7,N
1500444295.4,286047064.1,N
1500444315.2,286047066.2,N
1500444335.0,286047068.4,N
1500444335.9,286047068.4,N
1500444355.8,286047065.5,N
1500444375.6,286047068.3,N
1500444395.4,286047065.7,N
1500444415.3,286047067.9,N
1500444435.1,286047064.1,N
1500444436.0,286047064.1,N
1500444455.8,286047065.5,N
1500444475.7,286047064.9,N
1500444495.5,286047066.3,N
1500444515.3,286047066.5,N
1500444535.1,286047066.7,N
1500444555.9,286047064.8,N
1500444575.7,286047064.4,N
1500444595.5,286047065.5,N
1500444615.4,286047068.1,N
1500444635.2,286047066.4,N
1500444655.0,286047066.6,N
1500444655.9,286047066.6,N
1500444675.8,286047066.5,N
1500444695.6,286047064.4,N
1500444715.4,286047063.7,N
1500444735.3,286047064.2,N
1500444755.1,286047066.3,N
1500444775.8,286047062.2,N
1500444795.7,286047062.4,N
1500444815.5,286047061.3,N
1500444835.3,286047063.5,N
1500444855.2,286047060.7,N
1500444875.9,286047061.0,N
1500444895.7,286047063.0,N
1500444915.6,286047061.4,N
1500444935.4,286047061.4,N
1500444955.2,286047059.1,N
1500444975.1,286047059.8,N
1500444976.0,286047059.8,N
1500444995.8,286047059.8,N
1500445015.6,286047057.3,N
1500445035.5,286047060.3,N
1500445055.3,286047059.4,N
1500445075.1,286047059.4,N
1500445095.8,286047059.5,N
1500445115.7,286047059.8,N
1500445135.5,286047057.3,N
1500445155.3,286047056.2,N
1500445175.2,286047058.7,N
1500445195.9,286047058.6,N
1500445215.7,286047056.7,N
1500445235.6,286047054.1,N
1500445255.4,286047056.3,N
1500445275.2,286047054.2,N
1500445295.1,286047054.9,N
1500445296.0,286047054.9,N
1500445315.8,286047055.9,N
1500445335.6,286047056.3,N
1500445355.5,286047056.4,N
1500445375.3,286047056.1,N
1500445395.1,286047055.2,N
1500445415.9,286047052.5,N
1500445435.7,286047055.4,N
1500445455.5,286047053.0,N
1500445475.3,286047050.9,N
1500445495.2,286047053.7,N
1500445515.0,286047051.1,N
1500445515.9,286047051.1,N
1500445535.7,286047052.8,N
1500445555.6,286047051.7,N
1500445575.4,286047051.1,N
1500445595.2,286047053.0,N
1500445615.1,286047052.6,N
1500445616.0,286047052.6,N
1500445635.8,286047053.9,N
1500445655.6,286047053.3,N
1500445675.5,286047053.4,N
1500445695.3,286047053.0,N
1500445715.1,286047052.9,N
1500445735.9,286047051.7,N
1500445755.7,286047051.8,N
1500445775.5,286047051.2,N
1500445795.4,286047054.0,N
1500445815.2,286047051.0,N
1500445835.0,286047054.0,N
1500445835.9,286047054.0,N
1500445855.8,286047052.1,N
1500445875.6,286047051.7,N
1500445895.4,286047051.2,N
1500445915.3,286047052.1,N
1500445935.1,286047051.5,N
1500445936.0,286047051.5,N
1500445955.8,286047054.0,N
1500445975.7,286047053.3,N
1500445995.5,286047052.7,N
1500446015.3,286047051.3,N
1500446035.2,286047053.2,N
1500446055.9,286047051.5,N
1500446075.7,286047049.3,N
1500446095.5,286047051.2,N
1500446115.4,286047052.3,N
1500446135.2,286047052.2,N
1500446155.0,286047051.9,N
1500446156.0,286047051.9,N
1500446175.8,286047051.2,N
1500446195.6,286047051.6,N
1500446215.4,286047049.8,N
1500446235.3,286047051.7,N
1500446255.1,286047051.6,N
1500446275.8,286047051.2,N
1500446295.7,286047051.9,N
1500446315.5,286047052.1,N
1500446335.3,286047050.3,N
1500446355.2,286047050.7,N
1500446375.9,286047050.3,N
1500446395.7,286047049.0,N
1500446415.6,286047047.9,N
1500446435.4,286047047.7,N
1500446455.2,286047048.8,N
1500446475.1,286047046.8,N
1500446476.0,286047046.8,N
1500446495.8,286047049.1,N
1500446515.6,286047047.3,N
1500446535.5,286047045.5,N
1500446555.3,286047047.1,N
1500446575.1,286047042.9,N
1500446595.8,286047045.6,N
1500446615.7,286047045.6,N
1500446635.5,286047043.4,N
1500446655.3,286047041.3,N
1500446675.2,286047044.4,N
1500446695.0,286047043.7,N
1500446695.9,286047043.7,N
1500446715.8,286047041.7,N
1500446735.6,286047041.4,N
1500446755.4,286047041.9,N
1500446775.2,286047043.7,N
1500446795.1,286047043.6,N
1500446796.0,286047043.6,N
1500446815.8,286047045.3,N
1500446835.6,286047045.7,N
1500446855.5,286047045.3,N
1500446875.3,286047043.8,N
1500446895.1,286047042.2,N
1500446915.9,286047041.4,N
1500446935.7,286047043.9,N
1500446955.5,286047043.5,N
1500446975.4,286047043.5,N
1500446995.2,286047043.6,N
1500447015.0,286047044.8,N
1500447015.9,286047044.8,N
1500447035.8,286047047.6,N
1500447055.6,286047045.7,N
1500447075.4,286047044.6,N
1500447095.3,286047046.7,N
1500447115.1,286047048.5,N
1500447116.0,286047048.5,N
1500447135.8,286047048.1,N
1500447155.7,286047048.1,N
1500447175.5,286047049.6,N
1500447195.3,286047047.8,N
1500447215.2,286047048.8,N
1500447235.9,286047047.5,N
1500447255.7,286047047.3,N
1500447275.6,286047047.3,N
1500447295.4,286047045.0,N
1500447315.2,286047047.5,N
1500447335.1,286047046.9,N
1500447336.0,286047046.9,N
1500447355.8,286047046.9,N
1500447375.6,286047047.4,N
1500447395.5,286047045.0,N
1500447415.3,286047045.9,N
1500447435.1,286047042.6,N
1500447455.8,286047041.3,N
1500447475.7,286047044.4,N
1500447495.5,286047041.5,N
1500447515.3,286047043.6,N
1500447535.2,286047043.8,N
1500447555.9,286047043.0,N
1500447575.7,286047046.0,N
1500447595.6,286047043.1,N
